Weather History for KNFL - January, 2015

Change the Weather History Date:

Sunday, January 25, 2015

  Actual Average Record
Temperature  
Mean Temperature 38 °F -  
Max Temperature 57 °F 48 °F 67 °F (1975)
Min Temperature 19 °F 19 °F -22 °F (1949)
Degree Days  
Heating Degree Days 27    
Moisture  
Dew Point 17 °F    
Average Humidity 46    
Maximum Humidity 63    
Minimum Humidity 26    
Precipitation  
Precipitation 0.00 in - - ()
Sea Level Pressure  
Sea Level Pressure 30.25 in    
Wind  
Wind Speed 2 mph (East)    
Max Wind Speed 7 mph    
Max Gust Speed -    
Visibility 10 miles    
Events      
Averages and records for this station are not official NWS values.
T = Trace of Precipitation, MM = Missing Value Source: NWS Daily Summary

Daily Weather History Graph

Daily Weather History Graph

Search for Another Location

Airport or City:

Trip Planner

Search our weather history database for the weather conditions in past years. The results will help you decide how hot, cold, wet, or windy it might be!

Date:

Astronomy

Jan. 25, 2015 Rise Set
Actual Time 7:07 AM PST 5:06 PM PST
Civil Twilight 6:39 AM PST 5:35 PM PST
Nautical Twilight 6:06 AM PST 6:08 PM PST
Astronomical Twilight 5:34 AM PST 6:39 PM PST
Moon 10:18 AM PST (1/25) 11:34 PM PST (1/25)
Length of Visible Light 10h 56m
Length of Day
9h 58m
Waxing Crescent, 35% of the Moon is Illuminated
Jan 25
Waxing Crescent
Jan 26
First Quarter
Feb 3
Full
Feb 11
Last Quarter
Feb 18
New

Hourly Weather History & Observations

Time (PST) Temp. Windchill Dew Point Humidity Pressure Visibility Wind Dir Wind Speed Gust Speed Precip Events Conditions
12:56 AM 28.0 °F - 15.1 °F 58% 30.30 in 10.0 mi Calm Calm - N/A   Clear
1:56 AM 28.0 °F - 15.1 °F 58% 30.31 in 10.0 mi Calm Calm - N/A   Clear
2:56 AM 23.0 °F - 12.0 °F 63% 30.30 in 10.0 mi Calm Calm - N/A   Clear
3:56 AM 23.0 °F - 10.9 °F 60% 30.30 in 10.0 mi Calm Calm - N/A   Clear
4:56 AM 21.0 °F - 10.0 °F 63% 30.30 in 10.0 mi Calm Calm - N/A   Clear
5:56 AM 21.9 °F - 10.9 °F 63% 30.31 in 10.0 mi Calm Calm - N/A   Clear
6:56 AM 19.9 °F - 9.0 °F 62% 30.31 in 10.0 mi Calm Calm - N/A   Clear
7:56 AM 25.0 °F 19.3 °F 12.9 °F 60% 30.30 in 10.0 mi SSW 4.6 mph - N/A   Clear
8:56 AM 34.0 °F 29.8 °F 17.1 °F 50% 30.30 in 10.0 mi SSE 4.6 mph - N/A   Clear
9:56 AM 41.0 °F - 18.0 °F 40% 30.31 in 10.0 mi Calm Calm - N/A   Clear
10:56 AM 46.9 °F - 19.0 °F 33% 30.30 in 10.0 mi Calm Calm - N/A   Clear
11:01 AM 48.0 °F - 19.0 °F 32% 30.42 in 10.0 mi Calm Calm - N/A   Scattered Clouds
11:56 AM 51.1 °F - 19.9 °F 29% 30.27 in 10.0 mi Calm Calm - N/A   Scattered Clouds
12:56 PM 55.9 °F - 21.0 °F 26% 30.23 in 10.0 mi NE 6.9 mph - N/A   Scattered Clouds
1:56 PM 55.9 °F - 21.0 °F 26% 30.20 in 10.0 mi ENE 6.9 mph - N/A   Partly Cloudy
2:56 PM 57.0 °F - 21.9 °F 26% 30.19 in 10.0 mi NE 5.8 mph - N/A   Partly Cloudy
3:56 PM 57.0 °F - 21.9 °F 26% 30.17 in 10.0 mi NNE 4.6 mph - N/A   Partly Cloudy
4:56 PM 54.0 °F - 21.9 °F 29% 30.17 in 10.0 mi North 5.8 mph - N/A   Clear
5:56 PM 46.9 °F - 21.0 °F 36% 30.17 in 10.0 mi NE 6.9 mph - N/A   Clear
6:56 PM 42.1 °F 37.7 °F 19.9 °F 41% 30.17 in 10.0 mi ENE 6.9 mph - N/A   Clear
7:56 PM 39.0 °F 36.8 °F 19.0 °F 45% 30.18 in 10.0 mi South 3.5 mph - N/A   Clear
8:56 PM 35.1 °F - 17.1 °F 48% 30.19 in 10.0 mi Calm Calm - N/A   Clear
9:56 PM 32.0 °F 27.5 °F 16.0 °F 52% 30.19 in 10.0 mi South 4.6 mph - N/A   Clear
10:56 PM 30.0 °F 24.1 °F 17.1 °F 59% 30.19 in 10.0 mi South 5.8 mph - N/A   Clear
11:56 PM 28.9 °F 25.2 °F 15.1 °F 56% 30.18 in 10.0 mi South 3.5 mph - N/A   Clear